Regional Weather Roundup
Issued by NWS

Home | Current Version | Previous Version | Graphics & Text | Print | Product List | Glossary Off
Versions: 1 2 3 4 5 6 7 8 9 10 11 12 13 14 15 16 17 18 19 20 21 22 23 24 25 26 27 28 29 30 31 32 33 34 35 36 37 38 39 40 41 42 43 44 45 46 47 48 49 50

000
ASUS44 KMEG 231610
RWRTN
TENNESSEE HOURLY STATE WEATHER ROUNDUP
NATIONAL WEATHER SERVICE MEMPHIS TN
1100 AM CDT SAT JUL 23 2016

TNZ002-004-019-021-049-052-054-088>092-231700-
WEST TENNESSEE

CITY           SKY/WX    TMP DP  RH WIND       PRES   REMARKS
MEMPHIS INTL   CLOUDY    81  72  74 S12       30.00F
NWS MEMPHIS      N/A     78 N/A N/A MISG        N/A
JACKSON        CLOUDY    84  74  71 W6        30.01S HX  91
DYERSBURG      CLOUDY    84  75  74 MISG      30.00F HX  92
UNION CITY     MOSUNNY   86  77  74 SW6       29.99S HX  97
PARIS          SUNNY     84  73  70 S5        30.02S HX  91
LEXINGTON      SUNNY     84  73  70 S5        30.00F HX  91
$$

TNZ008-025-027-028-033-062-065-066-231700-
NORTH MIDDLE TENNESSEE

CITY           SKY/WX    TMP DP  RH WIND       PRES   REMARKS
NASHVILLE      PTSUNNY   87  75  67 CALM      30.01F HX  96
CLARKSVILLE    MOSUNNY   87  72  60 CALM      30.00F HX  93
SMYRNA         MOSUNNY   89  76  65 CALM      30.01F HX 100
COOKEVILLE     SUNNY     90  77  66 CALM      30.03F HX 102
CROSSVILLE     MOSUNNY   86  70  58 VRB3      30.10S HX  90
$$

TNZ061-075-076-078-094-096-097-231700-
SOUTH MIDDLE TENNESSEE

CITY           SKY/WX    TMP DP  RH WIND       PRES   REMARKS
FAYETTEVILLE   MOSUNNY   88  73  62 VRB7      30.04S HX  96
TULLAHOMA      SUNNY     90  72  55 S3        30.05F HX  96
WINCHESTER     SUNNY     90  70  51 W5        30.04S HX  95
MCMINNVILLE    SUNNY     91  77  62 S3        30.04F HX 105
COLUMBIA       MOSUNNY   90  81  74 VRB5      30.01S HX 108
SHELBYVILLE    SUNNY     91  79  66 SW5       30.03F HX 107
$$

TNZ017-018-042-046-047-231700-
NORTHEAST TENNESSEE

CITY           SKY/WX    TMP DP  RH WIND       PRES   REMARKS
TRI CITIES     PTSUNNY   89  68  49 CALM      30.08S HX  93
ELIZABETHTON   SUNNY     88  70  55 VRB3      30.08S HX  92
$$

TNZ012-013-036-069-073-074-231700-
CENTRAL EAST TENNESSEE

CITY           SKY/WX    TMP DP  RH WIND       PRES   REMARKS
KNOXVILLE      PTSUNNY   88  70  55 CALM      30.03F HX  93
OAK RIDGE      SUNNY     90  72  55 CALM      30.05S HX  97
GATLINBURG       N/A     90  70  51 CALM      30.04F HX  95
MORRISTOWN     MOSUNNY   90  72  55 CALM      30.06S HX  96
$$

TNZ083-085-099-231700-
SOUTHEAST TENNESSEE

CITY           SKY/WX    TMP DP  RH WIND       PRES   REMARKS
CHATTANOOGA    CLOUDY    88  73  61 CALM      30.03F HX  95
$$

SKY/WX REPORTED AS FAIR MEANS FEW OR NO CLOUDS BELOW
12 THOUSAND FEET.





USA.gov is the U.S. government's official web portal to all federal, state and local government web resources and services.